Preview of NWS' New Version of Forecast
This preview is not operational and should not be used for support decisions.

Regional Weather Roundup (RWR)

Issued by National Weather Service (NWS)

                            
000
ASPQ40 PGUM 210110
RWRPQ 
WEATHER ROUNDUP FOR THE MARIANAS AND MICRONESIA
NATIONAL WEATHER SERVICE TIYAN GU
1100 AM CHST SUN APR 21 2019

GUZ001>004-210200-
MARIANA ISLANDS-
  
CITY           SKY/WX    TMP DP  RH WIND       PRES   REMARKS
GUAM AIRPORT   SUNNY     86  72  62 E15       29.89F HX  92           
ANDERSEN AFB   MOSUNNY   86  73  66 E16       29.90F HX  93           
ROTA AIRPORT   MOSUNNY   84  70  61 E16       29.88F                  
TINIAN AP      PTSUNNY   88  73  62 E18       29.89R HX  96           
SAIPAN AP      MOSUNNY   84  73  70 E18       29.90S HX  91           

$$

PMZ161-210200-
REPUBLIC OF PALAU-
  
CITY           SKY/WX    TMP DP  RH WIND       PRES   REMARKS
KOROR AP       PTSUNNY   84  73  70 E14G21    29.82F HX  91           
KOROR WSO      NOT AVBL                                               

$$

PMZ171>174-210200-
FEDERATED STATES OF MICRONESIA-
  
CITY           SKY/WX    TMP DP  RH WIND       PRES   REMARKS
YAP AIRPORT    MOSUNNY   90  75  62 VRB7      29.84S HX 100           
CHUUK AP       PTSUNNY   86  79  79 VRB5      29.79  HX  99           
POHNPEI AP     CLOUDY    88  77  70 E15       29.80F HX 100           
POHNPEI WSO    NOT AVBL                                               
KOSRAE AP      NOT AVBL                                               

$$

PMZ181-210200-
REPUBLIC OF THE MARSHALL ISLANDS-
  
CITY           SKY/WX    TMP DP  RH WIND       PRES   REMARKS
KWAJALEIN AP   MOSUNNY   88  75  66 E15       29.85F HX  97           
MAJURO AP      NOT AVBL                                               
MAJURO WSO     MOSUNNY   84  75  74 E8        29.82F HX  92           

$$